This is the latest recevied weather packets stored in our database for station/object JH4GLG-13. If no packets are shown the sender has not sent any weather packets the latest 10 day(s).
| Time | Temp. | Humidity | Pressure | Rain* | Wind** | Luminosity | Snow |
|---|---|---|---|---|---|---|---|
| 1777969589 | 20.56° C | 34% | 1018.7 hPa | 0 mm | - | - | - |
| 1777968688 | 21.11° C | 36% | 1018.5 hPa | 0 mm | - | - | - |
| 1777967789 | 21.11° C | 36% | 1018.6 hPa | 0 mm | - | - | - |
| 1777966887 | 21.11° C | 36% | 1018.6 hPa | 0 mm | - | - | - |
| 1777965989 | 21.11° C | 37% | 1018.6 hPa | 0 mm | - | - | - |
| 1777965088 | 21.67° C | 39% | 1018.4 hPa | 0 mm | - | - | - |
| 1777964188 | 21.67° C | 38% | 1018.4 hPa | 0 mm | - | - | - |
| 1777963287 | 21.11° C | 37% | 1018.3 hPa | 0 mm | - | - | - |
| 1777962388 | 21.67° C | 38% | 1018.4 hPa | 0 mm | - | - | - |
| 1777961487 | 21.67° C | 38% | 1018.6 hPa | 0 mm | - | - | - |
| 1777960588 | 22.22° C | 38% | 1018.8 hPa | 0 mm | - | - | - |
| 1777959686 | 22.22° C | 38% | 1018.9 hPa | 0 mm | - | - | - |
| 1777958787 | 22.78° C | 36% | 1019.1 hPa | 0 mm | - | - | - |
| 1777957886 | 23.89° C | 34% | 1019.2 hPa | 0 mm | - | - | - |
| 1777956987 | 22.78° C | 38% | 1019.5 hPa | 0 mm | - | - | - |
| 1777956086 | 22.78° C | 38% | 1019.7 hPa | 0 mm | - | - | - |
| 1777955191 | 24.44° C | 39% | 1019.8 hPa | 0 mm | - | - | - |
| 1777955187 | 23.89° C | 40% | 1019.8 hPa | 0 mm | - | - | - |
| 1777954286 | 22.78° C | 43% | 1020.1 hPa | 0 mm | - | - | - |
| 1777953387 | 22.22° C | 43% | 1020.2 hPa | 0 mm | - | - | - |
| 1777952485 | 21.11° C | 44% | 1020.4 hPa | 0 mm | - | - | - |
| 1777951586 | 21.11° C | 45% | 1020.5 hPa | 0 mm | - | - | - |
| 1777950685 | 21.11° C | 45% | 1020.7 hPa | 0 mm | - | - | - |
| 1777949786 | 21.11° C | 47% | 1020.7 hPa | 0 mm | - | - | - |
| 1777948885 | 22.78° C | 46% | 1021 hPa | 0 mm | - | - | - |
* Rain latest hour (hover to see other rain measurements)
** Current wind speed in m/s (hover to see current wind gust speed)